Regional Weather Roundup
Issued by NWS

Home | Current Version | Previous Version | Text Only | Print | Product List | Glossary On
Versions: 1 2 3 4 5 6 7 8 9 10 11 12 13 14 15 16 17 18 19 20 21 22 23 24 25 26 27 28 29 30 31 32 33 34 35 36 37 38 39 40 41 42 43 44 45 46 47 48 49 50
000
ASUS42 KFFC 241910
RWRGA
WEATHER ROUNDUP FOR GEORGIA
NATIONAL WEATHER SERVICE PEACHTREE CITY GA
200 PM EST SAT FEB 24 2018

NOTE: "FAIR" INDICATES FEW OR NO CLOUDS BELOW 12,000 FEET WITH NO
SIGNIFICANT WEATHER AND/OR OBSTRUCTIONS TO VISIBILITY.

* = USE WITH CAUTION. THE STATIONS MARKED WITH AN ASTERISK MAY NOT
REPORT WEATHER SUCH AS PRECIPITATION, FOG, OR THUNDER AND ARE NOT
QUALITY CONTROLLED BY NWS.

THE REMARK "TC" DENOTES TEMPERATURE READING IN DEGREES CELSIUS.

GAZ001>058-242000-
NORTH GEORGIA

CITY           SKY/WX    TMP DP  RH WIND       PRES   REMARKS
ATLANTA        PTSUNNY   78  59  51 S13G29    30.11F
ATHENS         FAIR      81  60  48 VRB5      30.11F
CHAMBLEE       PTSUNNY   76  56  49 S20       30.10F
PEACHTREE CITY CLOUDY    77  59  53 SW9       30.12F
ROME           CLOUDY    79  56  45 SW13G21   30.05F
WEST ATLANTA   PTSUNNY   79  58  48 SW14G23   30.10F
GAINESVILLE    PTSUNNY   76  56  49 SW14G23   30.13F
CARTERSVILLE   FAIR      79  57  46 SW8       30.09F


CITY           SKY/WX    TMP DP  RH WIND       PRES   REMARKS
DALTON*        CLOUDY    75  57  53 S9        30.08F
LAWRENCEVILLE* PTSUNNY   77  57  50 SW16G24   30.11F
MARIETTA       PTSUNNY   80  55  42 S20       30.09F
KENNESAW*      CLOUDY    78  57  48 SW9G20    30.10F
CANTON*        PTSUNNY   79  55  44 SW12G25   30.11F
BLAIRSVILLE*   CLOUDY    72  53  52 S13       30.13F
$$

GAZ059>098-102>109-242000-
CENTRAL GEORGIA

CITY           SKY/WX    TMP DP  RH WIND       PRES   REMARKS
AUGUSTA-BUSH   PTSUNNY   81  61  50 SW7       30.13F
AUGUSTA-DANIEL FAIR      80  61  52 S10G18    30.15F
COLUMBUS       PTSUNNY   82  58  43 SW15      30.10F
MACON          PTSUNNY   79  58  48 SW14      30.12F
ROBINS AFB     MOSUNNY   84  58  41 S9G21     30.11F


CITY           SKY/WX    TMP DP  RH WIND       PRES   REMARKS
LAGRANGE*      FAIR      81  60  49 S13G20    30.11F
SYLVANIA*      FAIR      80  65  60 SW7       30.17F
MILLEDGEVILLE* FAIR      82  59  44 S5        30.12F
$$

GAZ099>101-110>166-242000-
SOUTH GEORGIA

CITY           SKY/WX    TMP DP  RH WIND       PRES   REMARKS
SAVANNAH       FAIR      81  59  47 S9        30.17F
VALDOSTA       PTSUNNY   82  59  45 S9        30.15F
ALMA           FAIR      82  60  47 S7        30.15F
ST SIMONS      FAIR      75  66  73 SE10G20   30.18F
FT STEWART     FAIR      82  59  44 SW9       30.14F
ALBANY         PTSUNNY   85  59  41 S17       30.14F
HUNTER AFB     FAIR      79  74  84 SE14      30.15F
MOODY AFB      FAIR      83  58  42 S8        30.13F
BRUNSWICK      FAIR      79  63  57 SE14      30.19F


CITY           SKY/WX    TMP DP  RH WIND       PRES   REMARKS
BAINBRIDGE*    PTSUNNY   86  64  48 S14       30.13F
MOULTRIE*      PTSUNNY   81  61  50 SW5       30.15F
VIDALIA*       FAIR      84  63  48 S8G16     30.16F
WAYCROSS*      PTSUNNY   83  55  37 S10       30.16F
DOUGLAS*       FAIR      79  57  47 SW6       30.17F
$$




USA.gov is the U.S. government's official web portal to all federal, state and local government web resources and services.